This is the latest recevied weather packets stored in our database for station/object IW0REF-9. If no packets are shown the sender has not sent any weather packets the latest 10 day(s).
| Time | Temp. | Humidity | Pressure | Rain* | Wind** | Luminosity | Snow |
|---|---|---|---|---|---|---|---|
| 1778171923 | 33.33° C | 17% | 996 hPa | - | - | - | - |
| 1778171023 | 32.78° C | 17% | 996 hPa | - | - | - | - |
| 1778170123 | 33.33° C | 17% | 996.1 hPa | - | - | - | - |
| 1778169223 | 32.22° C | 18% | 996.1 hPa | - | - | - | - |
| 1778168323 | 33.33° C | 18% | 996.3 hPa | - | - | - | - |
| 1778167423 | 33.33° C | 18% | 996.4 hPa | - | - | - | - |
| 1778166523 | 33.33° C | 18% | 996.4 hPa | - | - | - | - |
| 1778165623 | 33.33° C | 20% | 996.5 hPa | - | - | - | - |
| 1778164723 | 32.78° C | 20% | 996.6 hPa | - | - | - | - |
| 1778163822 | 32.22° C | 20% | 996.8 hPa | - | - | - | - |
| 1778162921 | 32.22° C | 20% | 997 hPa | - | - | - | - |
| 1778162021 | 32.22° C | 21% | 997.1 hPa | - | - | - | - |
| 1778161121 | 31.67° C | 23% | 997.4 hPa | - | - | - | - |
| 1778160221 | 30° C | 25% | 997.6 hPa | - | - | - | - |
| 1778159321 | 27.78° C | 27% | 997.7 hPa | - | - | - | - |
| 1778158421 | 27.22° C | 28% | 997.8 hPa | - | - | - | - |
| 1778157521 | 27.22° C | 30% | 997.9 hPa | - | - | - | - |
| 1778156621 | 27.22° C | 30% | 997.9 hPa | - | - | - | - |
| 1778155720 | 26.67° C | 32% | 997.9 hPa | - | - | - | - |
| 1778154820 | 26.11° C | 33% | 998 hPa | - | - | - | - |
| 1778153920 | 25.56° C | 35% | 997.9 hPa | - | - | - | - |
| 1778153020 | 25.56° C | 35% | 998 hPa | - | - | - | - |
| 1778152120 | 25° C | 36% | 998 hPa | - | - | - | - |
| 1778151219 | 25° C | 38% | 998.1 hPa | - | - | - | - |
| 1778150319 | 23.89° C | 39% | 998.1 hPa | - | - | - | - |
* Rain since midnight (hover to see other rain measurements)
** Current wind speed in m/s (hover to see current wind gust speed)